GFSGBSN_con_lsi_009.txt.gz
Lid_Strength_Index
-0 0 0 0 0 0 0 0 0 0 0 0 0 1 1 1 1 0 1 1 0 0 1 1 1 1 5 11 9 3 -1 -1 5 6 7 9 10 10 12 11 11 12 11 10 10 10 10
-1 -0 -0 0 0 0 -0 -0 -0 -0 -0 0 0 0 1 1 1 1 1 1 1 0 1 1 1 1 10 13 8 2 2 5 6 8 9 9 10 10 12 12 11 12 11 11 11 11 11
-0 -1 -1 -0 -0 -0 -0 -0 -0 -0 0 0 1 1 1 1 1 1 1 1 1 1 1 1 2 3 10 11 7 4 5 7 7 8 10 10 9 10 11 12 11 12 13 13 13 12 12
-0 -0 -0 -0 0 0 0 0 0 0 0 1 1 1 2 2 1 1 1 1 1 2 2 1 1 6 13 8 7 7 9 10 9 9 9 9 9 10 11 11 12 14 14 16 13 13 13
-1 -1 -0 -0 0 0 0 0 0 1 1 1 2 2 2 2 2 2 1 2 2 2 2 2 7 12 13 7 10 9 9 10 10 10 9 8 9 12 12 14 15 16 17 17 15 13 13
-1 -0 -0 -0 -0 -0 0 1 1 1 1 2 2 2 2 2 2 2 2 4 3 4 4 4 7 13 11 12 9 9 10 9 10 10 11 11 13 14 15 15 18 17 18 17 17 13 15
0 -0 -0 -0 0 0 0 0 1 1 1 1 2 2 2 2 2 2 7 10 11 12 10 12 12 13 12 10 9 10 9 10 11 12 14 13 15 16 14 14 15 17 17 18 15 13 15
1 1 0 0 1 1 1 1 0 0 1 1 2 2 2 2 2 3 9 10 11 11 13 10 11 11 10 10 11 11 9 11 12 14 14 15 16 13 14 14 15 16 17 16 15 14 16
1 1 1 1 1 1 1 1 1 0 1 1 1 2 2 2 3 7 10 11 8 9 15 13 12 13 12 10 12 11 10 11 13 15 15 15 14 13 14 16 16 17 17 16 17 16 16
0 0 1 1 1 1 2 1 2 2 2 2 2 2 2 3 5 9 10 9 9 11 16 14 14 13 12 12 14 12 11 12 14 14 15 15 14 14 16 15 15 17 15 15 16 17 19
0 1 2 2 2 2 2 3 3 3 3 3 3 2 2 4 7 8 9 9 9 13 19 13 15 11 12 14 14 14 12 13 15 15 15 15 15 16 16 15 15 15 15 16 17 18 19
1 2 2 3 3 3 4 4 4 4 4 4 4 3 3 5 6 7 8 9 11 13 19 14 15 15 15 14 14 14 13 13 14 15 16 15 15 15 14 15 14 15 16 17 18 18 21
2 2 3 3 4 4 4 5 5 5 6 5 5 4 3 4 6 7 7 6 13 17 11 14 15 15 16 16 15 14 15 15 16 17 17 17 16 16 15 16 16 15 16 20 21 22 21
3 3 4 4 4 5 5 6 6 6 6 6 6 4 4 3 5 6 5 9 17 13 13 12 12 13 14 13 14 15 15 16 15 16 18 17 16 15 15 14 15 16 16 18 21 21 18
4 4 5 6 6 6 6 6 7 7 7 7 6 5 4 3 5 5 7 14 14 14 12 12 11 14 15 13 12 14 16 15 14 14 14 17 17 15 15 14 13 17 17 14 17 18 19
4 5 6 7 7 7 7 8 8 8 8 7 9 7 6 3 4 5 9 13 11 10 10 10 14 12 16 14 12 13 14 14 14 13 12 13 16 14 14 15 14 13 12 16 17 20 20
4 5 5 6 7 8 8 8 8 8 8 7 8 10 7 3 2 6 12 12 10 7 8 10 11 12 12 13 11 13 12 11 11 12 12 12 13 14 13 15 14 15 15 15 14 15 18
5 5 7 7 7 7 8 7 7 5 5 5 7 12 4 1 9 8 11 9 7 8 7 8 9 11 12 11 12 12 13 11 8 10 12 11 12 16 14 11 12 12 12 12 17 18 15
5 5 5 6 7 7 6 6 6 5 5 7 8 9 3 2 12 11 9 9 8 9 9 9 10 9 9 11 13 11 11 8 8 9 11 10 14 17 16 13 12 13 12 12 13 14 17
4 5 5 6 6 6 6 6 5 5 5 8 10 14 9 5 7 9 10 10 10 8 8 8 9 9 10 11 10 12 11 9 9 8 7 8 13 15 18 15 13 15 13 12 13 17 16
4 5 6 5 4 4 6 7 6 4 5 9 12 13 10 12 12 10 9 10 12 11 8 8 10 10 11 13 12 12 11 10 8 8 9 10 15 13 13 12 12 14 14 14 16 14 16
4 4 5 6 4 4 4 4 5 4 5 11 13 14 12 11 11 13 10 12 11 11 9 11 11 10 10 11 11 13 11 11 11 10 11 9 14 13 16 13 13 14 13 13 13 13 13
4 3 4 3 3 3 3 4 4 3 6 12 11 11 12 13 13 14 14 12 13 12 11 12 12 12 12 11 10 10 9 10 10 11 12 11 13 15 16 14 15 17 15 14 13 12 13
3 3 3 3 3 3 3 3 3 3 4 9 10 11 15 18 14 13 13 12 13 13 13 12 12 12 11 10 10 11 12 11 11 11 10 12 14 14 16 20 21 15 14 13 14 15 16
2 2 2 2 2 2 2 2 2 2 3 7 8 11 15 21 13 13 13 13 13 14 14 13 12 12 11 13 17 24 23 21 16 13 12 11 13 18 18 20 17 15 14 14 15 17 15
2 2 2 2 1 1 1 2 1 2 2 5 6 7 10 17 17 12 14 13 18 18 17 14 12 13 12 14 20 27 26 23 22 18 14 12 11 14 21 23 28 17 14 13 13 21 16
1 1 1 1 1 2 2 1 1 1 1 5 6 6 8 13 12 12 14 14 13 15 19 19 17 15 12 16 26 24 25 16 22 23 22 25 24 17 17 18 21 16 15 13 23 20 16
1 1 2 1 1 1 2 2 2 2 1 3 5 5 7 10 11 11 10 13 13 15 18 17 16 17 17 21 23 17 22 16 18 16 17 18 24 29 29 27 24 14 14 17 15 13 13
1 1 2 1 1 2 2 2 2 2 1 2 6 4 4 8 11 9 8 8 8 9 11 16 13 18 12 17 20 19 23 21 20 23 15 19 16 20 19 20 13 12 12 10 10 11 11

GFSGBSN_con_lsi_015.txt.gz
Lid_Strength_Index
0 1 1 1 1 0 -0 0 0 0 0 0 0 0 0 0 0 0 0 0 -0 -0 0 0 0 1 2 6 6 0 -2 -1 2 3 4 5 6 6 8 7 7 8 7 7 6 6 7
-1 -1 0 0 0 0 0 -0 -0 -0 -0 -0 -0 0 0 0 0 0 0 0 0 0 1 1 1 1 4 8 3 -0 -1 1 3 4 4 4 6 5 7 8 8 7 8 8 7 7 7
-0 -1 -1 -1 -1 0 0 0 -0 -0 -0 -0 0 1 1 1 1 1 0 0 1 1 1 1 0 2 6 6 3 1 1 3 3 4 5 4 5 6 6 8 7 8 10 8 8 8 8
-0 -0 -0 -0 -1 -1 -1 -0 0 0 0 1 1 1 1 1 1 1 1 1 2 1 1 1 1 3 7 6 3 3 3 4 3 4 4 5 5 6 7 7 8 10 9 11 8 9 9
-1 -1 -0 -0 0 0 0 0 -0 -0 0 0 1 1 1 1 1 1 1 2 2 1 1 1 3 4 7 5 6 5 4 6 5 5 6 6 6 7 8 10 11 10 12 11 10 8 9
0 -0 -0 -0 -0 -0 0 1 1 1 1 1 1 2 1 1 1 1 2 4 2 3 2 3 5 8 8 8 7 7 6 6 7 7 8 8 8 9 9 10 14 11 11 11 11 8 9
0 0 -0 -0 -0 0 0 0 0 0 0 1 1 1 1 1 1 1 3 4 4 5 6 7 6 8 6 7 6 7 6 7 7 7 10 9 11 12 10 9 9 10 11 11 10 8 9
1 0 -0 -0 0 0 0 0 0 0 0 0 1 1 1 1 2 2 3 5 7 7 8 4 5 6 7 7 9 8 7 8 9 10 10 11 13 10 9 10 10 10 12 12 10 9 11
1 1 0 0 1 1 1 1 0 -0 0 1 1 1 1 2 2 3 5 7 6 6 9 7 7 8 8 7 8 8 8 9 10 11 11 12 10 9 10 10 11 11 12 12 12 10 10
1 1 1 1 1 1 1 1 2 1 1 1 2 2 2 2 4 3 5 6 5 6 10 9 9 9 9 9 10 9 8 9 10 11 10 11 9 11 11 12 11 13 10 11 12 13 14
1 1 1 2 2 2 2 2 2 3 3 3 2 2 2 3 2 3 5 5 5 7 17 9 11 8 9 11 11 11 9 9 11 11 11 11 12 12 12 11 10 11 11 12 12 13 13
0 1 1 1 1 2 2 3 3 4 4 4 3 2 3 3 1 4 4 5 6 11 17 10 11 11 11 11 11 10 10 9 9 11 10 11 11 11 10 10 10 11 11 11 11 12 15
0 1 1 2 3 3 3 4 4 5 5 5 4 3 3 3 3 4 4 4 12 17 9 11 11 11 12 12 11 11 11 11 11 12 12 10 10 10 10 11 11 12 12 15 16 16 17
1 2 3 3 3 4 4 5 5 6 6 7 5 2 3 3 5 6 4 8 17 12 11 9 9 9 10 9 10 10 10 10 9 10 11 12 14 10 10 10 11 10 10 15 20 19 16
2 3 3 4 4 5 5 6 6 7 7 6 4 2 3 2 3 4 5 14 14 11 9 10 9 11 10 9 10 9 9 10 9 8 12 12 12 7 9 9 9 10 12 9 15 14 17
3 4 4 5 5 6 6 7 7 7 8 7 5 5 5 2 3 3 8 12 11 9 8 9 12 10 12 11 11 10 10 9 9 8 8 9 14 8 8 8 7 9 8 15 14 20 20
4 5 5 6 6 7 7 8 8 8 8 7 6 10 6 3 2 6 13 12 10 8 8 9 10 11 11 11 11 12 11 9 8 8 8 9 11 12 9 10 11 10 11 11 11 13 18
4 5 5 6 6 7 7 7 8 8 6 7 6 11 4 3 9 9 11 11 10 10 8 8 8 9 10 10 11 11 11 9 6 7 10 8 11 15 12 8 7 9 11 11 17 18 14
5 5 6 6 6 6 7 7 7 7 7 7 8 8 3 3 11 10 9 10 9 9 9 8 9 8 7 10 12 10 9 6 6 8 10 9 12 17 14 10 9 12 10 11 12 14 17
4 5 6 5 6 6 6 7 8 7 7 4 8 11 7 6 5 8 10 10 9 6 7 7 8 7 9 10 8 10 9 7 7 7 7 7 11 14 17 13 11 14 12 12 13 17 16
4 4 5 6 6 6 6 7 7 6 7 6 8 11 9 11 9 8 8 9 10 10 8 7 8 8 9 11 10 10 9 8 7 7 7 8 14 11 11 10 10 11 12 11 12 12 15
5 5 5 5 6 6 6 6 7 6 8 9 11 12 10 9 8 8 9 10 10 10 9 10 10 9 8 10 10 12 10 10 10 9 9 8 13 11 14 11 11 12 11 11 11 11 11
5 5 5 6 6 6 5 6 7 6 8 10 8 8 8 10 10 10 10 10 10 8 9 9 9 9 10 9 8 8 8 8 8 10 11 11 12 13 16 12 13 16 14 12 11 10 10
4 4 5 6 5 5 6 5 5 4 5 6 7 7 10 12 11 11 11 9 10 9 10 10 9 10 9 7 8 9 10 10 10 10 9 12 13 13 16 15 21 14 10 10 12 11 10
3 4 3 3 3 3 3 2 3 3 3 6 5 7 9 12 11 11 11 10 9 9 10 10 9 8 8 10 13 14 15 16 14 12 11 10 12 15 17 17 15 14 11 12 12 13 9
2 2 2 2 2 3 2 2 2 2 2 3 5 4 7 10 12 10 10 10 11 11 12 11 9 8 8 10 13 18 18 17 17 15 13 12 11 14 15 18 20 14 10 9 9 15 8
1 1 1 1 1 2 2 2 2 2 2 2 4 3 6 10 9 9 10 11 9 10 11 11 11 11 9 13 15 17 17 14 18 18 16 16 15 16 16 16 14 9 10 8 15 13 8
1 1 1 1 1 1 1 1 1 1 1 2 3 2 5 8 8 8 7 9 9 9 11 12 12 12 12 15 15 15 16 15 16 14 15 16 16 16 15 17 19 9 10 13 9 8 7
1 1 1 0 0 1 1 1 1 1 0 1 5 3 2 7 7 5 5 5 6 7 8 11 9 12 10 12 12 12 15 14 15 18 12 16 13 14 13 13 9 8 8 7 6 7 8

GFSGBSN_con_lsi_021.txt.gz
Lid_Strength_Index
0 0 1 1 1 0 -0 -0 -0 -0 -0 -0 0 0 0 0 0 0 -0 -0 -1 -1 -0 0 0 -0 3 7 7 1 -2 -1 2 4 6 7 8 9 11 10 10 11 10 8 9 9 10
0 -0 -0 0 1 1 1 -0 -1 -1 -1 -0 -0 0 0 1 0 0 -0 -0 -0 -0 0 0 0 0 5 10 3 1 1 2 4 5 6 7 8 8 10 10 11 10 10 11 10 10 10
-0 -0 0 -1 -0 0 0 1 0 0 -0 -0 -0 0 0 0 0 -0 -0 -0 -0 1 0 0 0 2 6 8 2 1 2 4 4 5 7 6 7 8 9 10 9 10 12 11 11 11 11
-0 -0 -0 -0 -1 -1 -1 -0 0 0 0 1 1 1 1 0 0 0 -0 -0 1 0 0 1 1 4 10 6 5 3 4 6 5 5 6 7 7 8 9 9 10 12 14 15 11 11 11
-1 -0 -0 -0 -0 -0 -0 -0 -1 -0 0 1 1 1 1 1 1 1 0 0 2 1 1 1 4 6 9 5 7 7 6 7 7 7 8 7 8 10 11 13 15 15 17 15 13 11 12
-1 -1 -0 -0 -0 -0 0 0 1 1 1 1 0 0 1 1 1 1 1 1 2 2 2 2 4 10 9 9 8 7 8 7 8 9 9 10 11 13 14 15 18 16 16 14 15 12 13
-0 -1 -1 -0 -0 0 0 1 1 1 1 1 1 1 1 1 1 0 2 5 6 7 7 8 8 10 9 8 7 8 8 9 8 10 13 12 14 16 14 13 13 15 15 16 14 12 14
1 0 -0 -0 -0 -0 0 0 0 0 1 1 2 1 0 1 1 1 3 7 8 7 9 6 5 6 8 8 10 10 9 11 12 14 13 14 16 13 12 12 13 14 16 16 14 12 14
1 1 1 0 0 1 0 0 0 0 1 1 1 1 1 1 1 2 6 7 6 8 11 8 8 8 9 8 10 11 10 11 13 14 14 15 13 11 12 13 14 15 16 16 15 14 14
1 1 1 1 1 2 2 1 1 1 1 1 1 1 1 1 4 3 6 6 6 8 14 11 10 11 10 10 12 10 10 11 12 13 14 14 12 12 13 13 13 16 13 14 14 17 18
1 1 2 2 2 2 2 2 2 2 2 2 2 1 1 1 4 5 6 7 7 9 19 11 12 9 10 12 12 12 10 11 13 13 13 13 14 14 14 13 13 14 13 15 15 17 17
1 1 1 2 2 2 2 2 2 2 3 3 3 3 2 2 3 4 6 6 8 13 19 13 12 12 13 13 12 12 12 12 12 13 14 13 13 13 13 13 13 13 14 15 16 16 20
1 1 1 1 2 2 2 2 2 2 2 3 3 3 3 3 5 5 6 7 13 17 10 14 14 13 13 14 13 13 14 15 15 16 17 14 13 13 12 14 13 14 16 19 20 21 20
1 1 1 2 2 2 2 2 2 2 3 3 3 3 4 4 5 5 6 9 17 13 13 11 12 12 13 13 13 13 14 15 13 14 16 16 17 13 13 13 14 14 14 18 22 22 21
1 1 2 2 2 2 2 2 3 4 4 4 3 3 4 4 5 4 7 14 15 12 10 11 11 13 13 11 12 13 14 13 11 12 14 15 15 13 12 12 11 14 15 13 16 20 20
1 2 2 2 3 3 4 4 5 5 5 4 6 6 6 3 4 5 9 13 11 9 10 10 13 11 14 12 12 13 13 12 12 12 11 13 16 12 13 12 12 12 10 16 15 22 22
3 3 4 4 4 5 5 5 5 5 4 5 7 9 7 4 4 7 13 12 10 9 9 11 12 12 13 12 12 13 12 12 11 13 11 12 13 14 12 13 13 12 13 12 13 15 20
4 5 5 6 6 6 6 6 5 5 5 6 8 11 5 4 11 11 13 11 10 10 9 10 11 11 12 12 13 13 13 11 10 9 11 10 12 17 14 10 10 10 12 12 17 17 16
5 5 5 6 7 7 7 7 6 5 6 7 10 10 5 6 14 13 11 11 9 11 11 10 11 11 10 12 13 12 10 9 8 8 10 9 13 19 18 14 11 13 12 11 12 14 17
5 5 5 6 7 7 8 8 7 6 8 8 10 13 10 8 9 12 12 12 12 9 10 9 10 10 11 11 10 12 11 9 9 9 7 8 12 16 18 17 13 15 13 13 12 18 17
3 3 5 5 6 7 6 6 8 8 7 7 10 12 11 14 12 11 10 12 12 12 9 9 11 10 11 12 12 12 11 10 9 8 9 10 16 14 13 12 13 13 14 14 14 13 16
3 3 3 4 5 5 5 6 7 8 7 8 12 12 12 12 10 10 11 12 12 12 10 11 11 10 10 12 13 15 13 12 12 10 11 10 17 15 18 13 13 15 14 14 14 14 14
3 2 3 4 4 5 5 6 6 6 6 11 11 10 12 13 13 12 12 11 11 10 12 11 10 12 13 13 12 12 11 11 11 13 14 14 17 21 22 15 16 22 17 15 14 13 14
2 3 4 4 4 4 5 5 6 6 7 10 11 12 14 15 13 13 12 10 11 12 12 13 12 12 13 11 12 13 14 14 14 13 11 14 18 21 24 23 28 17 15 14 15 15 16
2 2 2 4 4 4 5 5 5 5 6 10 10 12 14 18 14 14 14 14 14 13 14 14 13 12 11 13 16 20 21 19 17 15 14 12 14 22 23 28 20 17 15 15 15 17 15
1 2 2 2 3 4 4 5 5 4 5 8 10 10 13 16 16 14 14 14 16 17 16 15 13 12 12 13 18 24 24 21 22 19 14 13 13 16 28 25 27 18 14 13 14 20 17
1 1 1 2 2 4 4 4 3 3 3 7 9 9 11 16 13 14 15 14 12 14 15 15 15 14 12 15 25 24 24 17 22 22 23 23 25 19 19 24 22 16 15 13 23 19 18
1 1 1 1 1 2 2 2 2 2 2 4 7 7 10 14 11 11 10 12 12 13 16 16 16 16 16 20 21 17 21 17 20 18 19 19 22 25 27 29 25 14 15 17 15 13 13
1 1 1 1 1 1 1 1 1 1 1 3 6 5 6 11 12 8 8 7 9 9 13 17 16 19 14 18 20 19 24 22 22 24 16 20 17 21 19 20 14 13 13 11 11 12 11

GFSGBSN_con_lsi_024.txt.gz
Lid_Strength_Index
0 1 1 1 0 -0 -0 0 0 0 -0 -0 0 0 0 0 0 0 -0 -1 -1 -1 -0 0 0 -0 3 8 8 1 -1 -1 3 5 7 7 9 9 12 11 11 11 11 9 9 9 10
0 0 -0 0 1 1 0 -1 -1 -1 -0 -0 0 0 0 0 0 -0 -0 -0 -1 -0 1 0 0 0 6 10 3 1 2 4 5 6 7 7 8 8 10 11 12 11 11 10 10 10 11
-0 0 -0 -0 -0 -0 0 1 0 -0 -1 -0 -0 0 0 0 0 -0 -0 -1 -0 1 0 0 0 2 6 8 2 2 3 5 5 6 8 7 8 9 10 11 10 11 12 12 12 12 12
-0 -0 -0 0 -0 -1 -0 -0 0 0 1 1 1 1 1 1 0 0 -0 -0 -0 1 0 1 0 4 10 6 5 3 5 6 6 6 7 7 7 9 10 10 11 13 14 16 12 12 12
-1 -0 -0 -0 0 0 -0 -1 -1 -0 0 1 1 1 1 1 1 1 0 -0 -0 1 0 0 4 7 10 5 7 7 7 7 7 7 8 7 8 11 11 14 16 15 18 16 13 11 12
-1 -1 -0 -0 -0 -0 0 0 0 -0 -0 0 1 1 1 1 1 1 0 1 2 2 2 2 4 10 9 10 8 7 8 7 9 9 10 10 12 14 15 16 19 17 17 16 15 13 13
-0 0 0 -0 -0 0 0 0 0 1 1 1 1 1 1 1 1 -0 1 5 6 7 6 8 9 10 9 8 7 9 8 9 9 11 15 13 15 17 15 14 15 16 16 16 15 13 15
1 1 1 1 1 -0 0 1 1 0 1 1 1 1 1 1 1 1 4 7 8 8 9 6 7 7 8 8 10 10 8 11 12 15 14 15 17 14 13 14 14 15 16 17 15 13 14
1 1 1 1 1 1 1 0 0 0 0 1 1 1 1 1 2 3 6 7 6 8 11 9 7 7 9 9 10 10 10 11 13 15 14 16 13 12 13 14 15 15 16 16 15 14 15
1 1 1 1 2 2 2 1 1 1 1 1 1 1 1 2 4 4 7 6 6 8 13 12 10 11 11 9 11 10 10 12 14 14 15 15 13 13 14 14 14 16 13 14 15 17 18
1 1 1 2 2 2 2 2 1 1 2 2 1 1 1 1 4 5 6 6 6 8 19 11 12 9 11 11 12 13 11 12 14 13 14 14 14 15 14 14 13 14 14 15 16 17 18
1 1 1 1 2 2 2 2 2 2 3 3 3 3 2 2 3 4 6 7 7 12 19 14 13 13 14 14 13 13 13 12 12 14 14 14 14 14 13 13 13 13 15 15 16 17 20
1 1 1 1 2 2 2 2 2 2 3 3 3 3 3 2 4 6 6 6 13 17 11 15 15 14 14 15 14 14 15 16 16 17 17 15 15 14 13 15 14 15 16 19 21 21 20
1 1 1 2 2 2 2 2 2 2 2 2 2 3 3 3 5 5 5 9 17 13 13 13 14 14 15 14 14 14 15 16 15 15 17 16 17 14 13 13 14 15 15 19 22 22 20
1 1 1 1 1 2 2 2 2 2 2 2 2 3 4 5 4 4 7 15 15 12 11 12 12 14 14 14 14 15 16 15 13 14 15 17 16 14 13 13 12 15 16 14 17 24 22
0 1 1 1 1 2 2 2 2 3 3 3 5 5 5 5 3 5 9 13 11 9 10 11 13 12 15 13 13 14 14 13 13 12 12 13 16 13 13 12 13 14 12 16 17 23 23
1 1 1 1 1 2 3 3 4 4 4 4 6 8 6 4 4 7 13 12 10 9 9 11 12 12 13 13 13 15 14 13 12 13 11 12 14 15 14 14 14 13 14 14 13 16 20
3 3 3 4 4 3 3 4 4 4 5 6 8 11 6 4 10 10 12 10 10 10 9 10 11 12 13 12 14 14 14 12 11 11 13 12 13 18 14 12 11 12 12 12 17 18 16
3 4 4 5 5 5 5 4 4 4 5 7 10 10 6 6 13 13 11 11 10 12 11 11 11 11 11 12 13 13 12 11 11 11 12 10 14 22 18 14 12 13 12 12 12 15 19
3 3 4 5 5 6 6 6 5 7 7 8 11 13 10 8 9 11 12 12 12 9 10 10 11 10 12 12 11 13 13 11 10 9 8 8 14 16 17 17 14 16 14 14 13 19 18
2 3 3 4 5 6 7 7 7 8 8 8 11 12 11 14 12 11 11 11 12 13 10 10 12 11 12 14 13 13 12 12 11 9 11 11 14 15 15 13 13 14 14 15 15 15 16
2 2 2 3 4 5 6 7 8 8 8 11 13 14 12 13 11 11 12 13 13 12 12 13 13 12 11 12 12 14 12 12 13 12 12 13 18 15 19 15 14 16 15 15 14 13 13
2 2 3 3 3 4 4 5 7 8 8 11 11 11 11 12 14 13 13 13 12 11 11 11 11 12 12 10 11 12 13 13 12 13 14 14 17 20 21 18 18 23 19 15 14 14 14
2 2 2 3 3 3 4 4 4 5 7 10 11 11 13 16 13 12 12 11 12 12 12 13 13 11 14 13 13 14 16 15 14 13 13 16 17 18 24 25 29 18 16 15 15 14 15
1 2 2 2 3 3 3 4 4 5 6 9 10 11 14 17 13 13 13 12 12 12 15 15 14 13 12 14 16 18 20 17 17 15 14 13 16 23 23 27 21 17 16 16 16 17 16
1 1 1 2 2 3 3 3 4 4 6 9 10 10 13 15 16 13 13 14 15 16 17 16 14 14 13 15 17 21 22 20 22 20 16 14 14 17 27 27 26 19 15 13 14 20 18
1 1 1 1 1 2 3 3 3 4 4 9 11 10 12 16 14 14 15 15 14 15 17 16 16 15 14 17 21 23 22 18 22 22 22 23 20 17 19 26 23 16 15 13 22 18 18
1 1 1 1 1 1 1 1 2 4 4 6 9 9 12 16 14 13 13 15 15 15 17 17 15 15 16 17 19 18 21 18 19 18 19 20 21 23 24 23 24 14 14 17 14 13 13
1 1 1 1 1 1 1 1 1 1 2 3 9 8 9 14 14 10 10 10 11 10 13 16 14 17 14 17 19 17 21 22 21 23 16 19 17 21 19 19 13 13 12 11 12 13 12

GFSGBSN_con_lsi_030.txt.gz
Lid_Strength_Index
-1 0 1 0 -0 0 -0 0 0 0 0 0 0 0 0 0 0 0 -0 -1 -1 -1 -1 0 -0 0 5 10 8 3 -1 -0 4 6 8 8 10 11 13 12 12 12 12 11 10 11 11
-0 -1 -0 0 1 0 0 -0 -0 -0 0 0 0 0 0 0 0 0 -0 -1 -1 -1 -0 0 0 0 9 11 4 3 4 6 6 7 8 8 9 9 11 12 13 12 12 12 11 12 12
-0 0 -0 -0 0 1 1 -0 -0 -0 -0 -0 0 0 0 0 0 0 -0 -0 -1 -1 -0 0 1 3 9 8 3 3 5 6 6 7 8 8 8 10 11 13 11 12 14 13 13 13 13
0 -0 0 0 0 1 1 1 1 -0 -0 -0 -0 0 0 0 0 0 -0 -0 -1 -0 0 1 0 6 9 7 4 4 6 6 6 7 7 8 8 9 11 11 13 14 15 16 14 13 13
0 0 -0 0 0 0 0 0 0 1 1 1 1 0 0 0 0 0 -0 -0 1 0 0 0 5 8 9 5 7 7 7 7 8 8 8 7 9 12 12 14 16 17 18 18 15 14 14
0 1 1 0 0 0 1 0 -0 -0 0 1 1 1 1 1 1 1 0 0 1 2 2 3 5 10 9 10 9 8 8 8 9 10 10 10 12 14 15 16 18 18 19 18 17 15 15
0 1 1 1 1 0 1 1 1 0 0 0 1 1 1 1 1 1 2 5 7 8 8 9 10 10 10 9 8 10 8 9 10 12 14 13 15 16 15 15 16 17 18 17 17 15 16
0 1 1 1 1 1 0 1 1 0 0 1 1 1 0 0 0 -0 2 6 7 7 9 6 7 9 9 9 11 10 8 11 12 14 14 15 17 14 14 15 16 17 18 18 16 15 15
0 1 1 1 1 1 0 0 1 0 0 1 1 2 2 1 0 1 3 5 6 7 9 8 7 8 8 9 10 11 10 12 14 15 15 16 14 14 15 16 17 18 18 18 16 16 16
2 1 1 1 1 2 2 1 1 1 1 1 1 2 2 1 3 3 5 4 6 7 13 12 10 10 10 10 12 11 11 12 14 14 15 16 14 14 16 16 16 18 15 15 16 17 18
2 2 1 1 2 2 2 2 2 1 1 2 2 2 2 1 4 5 4 6 8 8 20 12 12 10 11 11 12 13 12 12 15 14 15 15 16 16 16 15 15 16 15 16 17 18 19
1 2 2 1 1 2 2 2 2 2 2 3 2 2 2 1 2 4 6 6 7 12 19 14 13 14 13 13 14 13 13 12 13 15 16 15 15 15 14 15 14 15 16 16 18 18 22
2 2 2 2 2 2 2 2 2 2 3 3 3 3 3 2 5 6 6 6 13 17 12 15 16 15 14 15 15 15 15 16 16 18 18 16 16 15 15 16 16 16 17 20 21 22 21
3 1 2 2 2 2 2 2 2 2 2 3 3 3 3 2 3 6 6 9 17 13 14 14 15 15 16 15 16 15 16 17 16 17 18 18 19 15 14 15 16 17 16 19 23 23 21
3 2 2 1 2 2 2 2 2 2 2 3 3 3 3 2 4 5 8 15 15 13 11 15 15 17 17 16 16 17 17 17 16 16 16 18 17 16 15 15 14 17 18 16 19 26 22
4 3 2 2 2 2 2 2 2 3 3 3 3 4 4 1 3 5 10 13 12 10 11 13 14 15 18 16 16 17 17 16 15 15 14 15 17 16 16 14 14 15 14 18 18 24 24
3 4 3 2 2 2 2 2 2 3 3 3 4 7 4 1 4 7 13 12 10 9 10 12 13 14 16 15 15 17 16 15 14 15 13 14 15 17 16 16 16 16 17 16 16 18 22
2 2 3 3 3 2 2 2 2 2 3 4 6 10 5 2 9 9 12 10 9 9 9 11 11 12 14 13 15 16 16 14 12 12 15 13 15 19 17 16 15 16 16 16 17 20 20
2 2 3 3 3 3 3 2 2 2 3 6 9 10 6 5 13 12 10 10 9 10 10 11 12 11 12 13 14 14 14 13 12 12 13 13 16 22 19 17 17 17 16 16 17 18 21
2 2 3 3 3 2 3 3 2 2 2 5 9 12 10 9 10 11 11 11 11 10 10 10 11 11 13 13 12 13 14 13 13 12 10 10 16 17 18 18 16 18 16 16 15 17 17
3 1 2 3 4 4 4 4 4 4 5 6 9 11 10 13 12 12 10 11 12 13 11 10 12 11 11 14 13 14 14 14 13 11 13 12 17 17 16 17 16 16 16 17 17 15 16
3 2 2 3 4 4 4 4 5 5 5 9 11 12 12 12 11 12 12 12 12 12 12 13 13 12 11 13 13 14 13 14 14 14 14 14 16 17 19 17 16 18 17 17 15 16 16
2 2 2 2 3 3 4 4 5 5 6 11 11 11 11 12 13 12 12 13 13 11 12 12 12 12 12 11 11 13 12 12 12 13 14 15 17 19 18 20 19 19 18 16 16 15 14
2 2 2 1 2 3 3 4 4 5 6 9 11 11 13 15 13 13 13 12 12 11 13 13 12 11 14 13 13 14 16 15 14 16 14 17 18 18 22 21 23 19 20 17 14 14 14
1 1 2 2 2 2 2 2 3 4 5 8 9 11 13 15 14 14 14 14 13 13 15 14 16 15 12 13 16 17 18 17 17 19 17 16 17 21 21 22 20 19 19 20 18 18 18
1 1 1 1 1 2 2 2 3 4 4 7 8 8 11 14 15 13 15 15 15 16 16 18 16 15 14 15 16 19 20 18 20 21 18 16 15 16 23 23 23 22 19 17 17 22 19
1 1 1 1 1 1 1 2 2 3 5 8 9 8 10 13 13 13 14 14 13 14 17 17 17 16 14 16 19 19 19 18 21 22 23 20 20 18 21 21 21 19 19 17 22 18 21
1 1 1 1 1 1 1 1 1 3 4 8 10 8 11 13 13 13 12 13 14 14 16 17 16 16 16 17 16 18 19 20 20 20 21 20 21 22 21 22 22 18 17 18 16 16 15
1 1 1 1 1 1 1 1 1 1 2 5 11 8 9 13 14 11 10 11 12 11 13 15 14 16 14 16 17 18 20 21 21 23 20 21 18 20 18 19 17 15 14 13 13 14 14

GFSGBSN_con_lsi_033.txt.gz
Lid_Strength_Index
-1 -0 0 -0 -0 -0 0 0 0 0 0 0 0 0 0 0 0 0 -0 -1 -1 -1 -1 -0 -0 -0 5 10 8 3 -0 -0 4 6 7 8 9 10 12 11 11 11 11 11 10 10 10
-1 -1 -1 0 -0 -0 -0 0 0 -0 -0 -0 0 0 0 0 0 0 0 -0 -1 -1 -1 -0 -0 0 9 11 4 3 5 6 6 7 8 8 9 9 11 11 12 11 11 11 11 11 11
-0 -0 -0 -1 -0 0 0 0 -0 -0 -0 -0 0 0 0 0 0 0 -0 -0 -1 -1 -0 0 1 3 9 8 3 4 5 7 7 7 8 8 8 9 10 12 11 12 13 12 12 12 12
-0 -0 -0 -0 -0 -0 0 1 1 -1 -0 -0 0 0 1 0 0 0 -0 -1 -1 0 0 1 1 6 9 7 4 4 6 6 7 7 7 8 8 9 10 11 12 13 14 15 13 12 13
-0 0 0 0 0 0 -0 0 1 1 0 -0 0 0 0 0 0 0 0 -0 0 0 0 0 6 9 9 5 6 6 7 7 8 8 8 7 9 11 11 14 15 15 16 17 15 13 13
-0 0 0 1 1 1 1 1 -0 0 1 1 1 1 0 0 0 0 -0 -0 1 2 2 3 5 9 9 10 8 8 8 8 9 9 9 10 12 14 15 15 17 16 17 17 17 14 14
0 0 0 0 1 1 1 1 1 1 0 0 1 1 1 1 1 0 1 4 6 7 7 8 8 9 9 9 9 10 9 9 10 11 13 13 14 15 14 14 15 15 17 17 16 14 15
-0 0 0 0 1 1 1 1 1 1 1 1 0 0 1 1 1 1 2 6 7 8 9 7 8 9 9 9 11 11 9 11 12 14 14 15 16 13 14 14 15 16 17 17 16 15 15
1 1 -0 0 1 1 2 2 1 1 1 1 1 1 1 1 1 0 2 4 6 7 9 8 7 8 8 9 11 11 9 11 14 15 15 16 14 14 14 15 16 17 17 18 17 16 16
0 1 1 0 1 1 1 2 2 2 1 1 1 2 2 1 2 3 4 2 5 6 12 11 9 8 9 9 11 10 10 11 14 15 15 16 14 14 16 16 16 18 16 16 16 17 18
0 0 1 1 1 1 2 2 2 2 2 2 1 2 2 1 4 4 3 5 7 8 20 12 11 9 10 10 12 12 11 12 15 15 14 15 15 16 16 15 15 16 16 16 17 17 18
0 1 1 1 1 2 2 2 2 2 2 3 2 2 2 2 3 4 6 7 8 13 19 14 14 14 12 13 14 13 13 12 13 15 16 15 14 14 14 15 15 15 16 17 18 18 22
0 1 1 1 1 2 2 2 2 2 2 3 3 3 3 2 4 6 6 7 13 17 13 15 15 15 14 15 15 14 15 16 16 17 18 16 15 15 15 16 16 17 17 20 21 22 21
0 1 1 2 1 2 2 2 2 2 2 3 3 3 4 3 3 5 5 9 17 14 14 14 15 15 15 15 15 15 16 17 16 16 18 18 19 15 15 15 16 17 17 20 23 23 21
1 1 1 2 2 2 3 2 3 2 2 2 3 3 3 3 5 4 7 15 15 13 12 15 15 17 17 16 16 17 17 17 15 15 16 18 18 16 16 15 15 17 18 16 20 26 22
1 1 1 2 3 2 2 3 3 3 2 2 3 4 4 2 4 4 10 13 12 10 12 14 15 15 18 17 17 17 18 16 15 14 13 15 18 16 16 15 15 16 15 18 19 23 24
1 1 1 2 3 3 2 2 2 2 3 2 4 7 3 2 4 7 13 12 10 9 11 13 13 14 16 17 17 18 17 16 15 15 13 15 15 17 16 17 16 16 17 17 17 18 21
2 1 1 2 3 4 3 2 2 2 3 4 5 10 3 2 9 9 12 11 9 9 9 10 11 11 14 15 17 17 17 15 13 14 15 14 15 19 17 16 16 16 16 16 18 20 20
3 2 1 2 2 3 4 4 2 2 2 5 8 8 5 4 13 12 10 10 9 10 9 9 11 11 12 14 15 16 16 13 12 13 14 13 16 21 18 17 17 17 16 16 17 18 21
3 3 2 1 2 2 3 4 4 2 2 3 9 12 9 9 9 10 11 11 11 8 9 9 10 11 12 12 12 14 15 14 13 13 10 11 15 16 16 17 16 18 17 16 15 21 18
3 2 2 1 2 3 3 4 5 4 2 5 8 11 10 12 11 11 11 11 12 12 9 9 11 10 11 13 13 13 14 14 14 12 13 13 16 17 16 16 16 16 17 17 17 15 17
2 2 2 2 1 3 3 4 4 4 4 8 10 11 11 11 10 11 11 12 12 11 12 12 12 10 10 12 12 13 13 14 14 15 14 14 16 17 18 17 17 18 17 16 16 15 15
1 2 2 2 1 2 3 4 4 5 5 9 11 10 11 11 12 12 11 11 12 10 11 11 10 11 12 11 11 13 11 12 12 14 15 15 17 17 17 19 18 18 18 17 17 16 14
1 1 1 2 2 1 3 3 4 4 5 8 10 10 12 15 12 12 12 11 11 11 11 12 11 13 13 12 12 13 14 14 13 15 13 16 16 16 23 20 22 19 21 17 16 16 17
1 1 1 1 2 2 2 3 3 4 4 7 8 10 13 15 13 14 13 12 11 12 12 13 14 14 12 12 16 17 18 17 19 20 17 16 16 21 21 21 19 20 21 18 17 18 17
1 1 1 1 1 1 2 2 2 3 4 7 8 8 11 14 15 12 14 14 15 16 17 18 16 15 13 14 16 19 20 18 20 21 18 16 16 16 22 22 22 20 19 19 18 21 20
3 2 1 1 1 1 1 1 1 3 3 7 8 7 9 12 13 13 14 14 13 14 17 17 17 16 15 16 18 19 19 18 21 22 21 20 20 18 20 20 19 18 19 18 20 18 19
3 2 1 1 1 1 1 1 1 2 3 7 8 8 10 12 12 12 12 13 14 14 16 17 16 17 17 17 17 18 19 19 20 20 20 19 19 20 20 21 21 18 18 18 16 17 17
3 2 2 1 1 1 1 0 1 1 2 5 10 7 9 12 12 10 11 11 10 10 13 14 13 16 14 16 16 17 20 20 20 20 20 19 17 18 17 18 17 16 16 15 15 16 16

GFSGBSN_con_lsi_036.txt.gz
Lid_Strength_Index
-1 -0 -1 -1 -1 -0 -0 -0 -0 -0 -0 -0 -0 0 0 0 0 0 -0 -0 -1 -1 -1 -1 -1 -0 3 5 5 1 -0 -1 2 4 4 5 7 7 8 8 7 8 8 8 7 8 8
-0 -1 -0 -1 -1 -1 -1 -0 0 -0 -0 -0 0 0 0 0 0 0 0 -0 -1 -1 -1 -1 -0 0 5 6 2 2 3 4 4 4 5 5 6 6 7 8 8 8 8 8 8 8 8
-0 -0 -0 -0 -0 -0 -1 -1 0 0 -0 -0 -0 0 0 0 0 0 0 -0 -1 -1 -0 0 0 2 5 4 1 2 4 4 4 4 5 5 5 6 7 8 8 8 9 9 8 9 9
-0 -0 -0 0 -0 0 -0 -0 -1 -0 -0 -0 -0 0 0 0 0 0 0 -0 -1 0 0 0 0 4 5 5 0 3 3 4 4 4 5 5 5 6 7 8 8 9 10 10 9 9 10
-1 -0 0 0 0 0 0 0 0 0 0 -0 0 1 1 0 0 0 0 -0 -0 1 0 0 3 5 6 3 4 3 4 5 5 5 5 6 5 7 8 9 10 10 11 11 10 10 10
-1 0 0 0 0 0 1 1 0 1 1 0 0 0 0 0 0 1 0 -0 0 1 2 2 4 6 6 7 6 5 5 5 6 6 6 6 7 9 9 9 12 11 12 12 11 10 11
-0 -0 0 1 1 1 1 1 1 1 0 1 1 1 0 -0 -0 -0 -0 1 4 4 4 5 6 6 7 7 6 6 5 6 6 7 9 9 10 11 9 9 10 10 11 11 11 11 11
-1 -0 -0 0 1 1 1 1 1 1 1 1 1 1 1 1 1 0 -0 4 3 4 7 4 5 6 7 6 9 8 6 8 8 10 10 11 12 9 10 10 11 12 12 11 11 12 12
-1 -0 0 1 0 1 1 1 1 1 1 1 2 1 0 1 1 1 2 2 4 4 7 6 6 6 7 8 9 9 7 9 10 12 11 11 10 10 11 12 12 12 12 12 12 12 12
-1 -0 -0 1 1 1 1 1 1 2 2 2 2 2 2 2 3 1 3 0 2 4 10 9 8 6 8 7 9 8 7 8 10 11 11 11 11 12 12 12 11 13 11 12 13 14 15
-0 -1 0 1 1 1 1 1 1 2 2 2 2 2 2 1 2 4 2 0 1 4 17 9 9 7 8 7 9 10 8 8 11 12 11 11 13 13 13 12 12 12 12 13 13 14 15
-0 -0 -0 0 1 1 1 1 1 1 2 2 2 2 2 2 2 2 3 4 4 11 18 12 11 12 10 11 11 11 10 9 9 12 12 11 12 11 11 13 12 12 13 13 14 14 17
0 0 -0 0 0 0 1 1 1 1 2 2 2 3 3 2 5 4 5 5 12 16 10 13 13 12 11 13 13 12 13 12 12 13 13 13 12 12 12 13 13 12 13 16 17 18 18
1 0 0 0 0 0 -0 1 1 1 1 2 2 2 3 2 3 5 5 9 17 12 11 12 13 12 12 13 13 13 14 13 12 12 13 14 15 13 12 11 13 14 12 15 20 19 17
2 1 1 0 1 1 0 0 2 2 2 2 2 3 3 2 4 5 8 15 14 11 9 13 13 14 13 13 13 13 13 12 11 12 12 14 14 13 13 13 11 14 16 12 17 21 18
3 2 1 1 1 1 1 0 2 2 2 3 3 4 4 2 3 5 9 13 11 8 10 11 12 12 14 14 14 14 14 12 12 11 10 12 15 14 14 12 13 13 12 16 16 19 20
3 3 2 2 1 1 1 1 0 2 3 3 4 7 3 2 3 7 13 12 10 8 9 11 11 12 13 14 13 14 13 12 11 12 10 12 13 15 14 15 14 15 15 15 14 15 18
3 3 3 2 1 1 1 1 1 2 3 4 5 10 3 2 9 9 12 10 8 8 8 8 9 9 12 13 14 14 14 11 11 11 13 11 13 16 16 14 14 13 13 14 16 18 17
2 3 3 3 2 1 1 1 1 2 2 4 7 7 3 3 12 12 9 10 9 9 9 9 10 9 10 12 13 13 13 11 11 12 12 12 13 16 16 16 15 15 15 14 13 14 16
2 2 2 2 2 1 1 2 2 2 3 3 8 11 8 6 7 10 11 11 11 8 9 8 9 9 11 12 12 11 12 12 11 11 10 10 13 14 16 14 13 16 15 14 14 15 15
1 1 2 2 2 2 1 2 2 2 3 3 7 10 9 12 10 10 9 10 12 12 9 8 10 10 11 13 12 12 12 13 13 12 12 12 15 13 13 13 14 14 14 15 15 14 14
1 1 1 2 2 2 1 2 2 3 3 6 9 11 10 11 9 10 10 11 12 11 10 11 11 10 10 12 11 13 11 12 13 13 13 13 14 13 15 13 15 15 14 14 14 13 13
1 1 1 1 2 1 1 2 3 3 4 8 9 10 9 11 11 11 11 11 11 10 11 10 10 10 11 10 9 9 11 10 11 13 14 14 14 16 17 14 17 19 15 14 14 12 13
2 2 1 1 1 1 2 2 3 3 4 6 8 9 11 13 11 12 11 10 10 10 12 11 10 11 12 11 11 12 14 14 13 14 12 14 15 15 17 18 21 16 17 13 14 13 13
3 2 2 1 1 1 1 1 2 3 3 6 7 9 12 15 12 13 12 11 10 10 11 11 12 13 11 12 15 16 17 16 17 18 16 14 15 19 20 19 16 20 19 16 15 14 13
3 3 2 2 1 1 1 1 1 2 3 5 6 6 8 13 14 12 12 12 13 13 15 16 15 14 12 14 15 17 18 16 18 19 17 16 14 15 20 19 20 17 18 16 14 17 15
3 3 3 2 2 1 1 1 1 1 2 5 6 5 8 11 12 12 13 13 12 13 15 16 16 15 14 15 16 17 17 16 19 18 19 19 18 17 19 18 17 14 17 17 18 15 15
2 2 2 2 2 2 1 0 0 0 1 4 6 5 7 10 10 12 11 12 13 13 14 15 15 16 15 16 16 17 18 18 18 18 18 18 18 18 18 18 19 17 18 16 14 16 15
1 2 2 2 2 2 1 1 0 0 1 4 7 6 7 10 11 10 10 11 11 10 13 15 14 15 13 14 15 16 18 18 17 19 19 18 15 16 16 15 17 15 15 14 14 14 15